Regional Weather Roundup
Issued by NWS

Home | Current Version | Previous Version | Graphics & Text | Print | Product List | Glossary On
Versions: 1 2 3 4 5 6 7 8 9 10 11 12 13 14 15 16 17 18 19 20 21 22 23 24 25 26 27 28 29 30 31 32 33 34 35 36 37 38 39 40 41 42 43 44 45 46 47 48 49 50
000
ASUS43 KTOP 301859
RWRKS

WEATHER ROUNDUP FOR KANSAS
NATIONAL WEATHER SERVICE GOODLAND KS
200 PM CDT THU JUL 30 2015

NOTE:  "FAIR" INDICATES FEW OR NO CLOUDS BELOW 12,000 FEET WITH NO
SIGNIFICANT WEATHER AND/OR OBSTRUCTIONS TO VISIBILITY.

KSZ001>006-013>018-027>032-041>047-302000-
NORTHWEST KANSAS

CITY           SKY/WX    TMP DP  RH WIND       PRES   REMARKS
GOODLAND       SUNNY     85  60  42 S5        30.28F
HAYS           FAIR      82  64  54 S8        30.22F
HILL CITY      PTSUNNY   86  67  52 S9        30.23F
RUSSELL        PTSUNNY   83  69  62 VRB5      30.21F
$$

KSZ061>065-074>080-084>089-302000-
SOUTHWEST KANSAS

CITY           SKY/WX    TMP DP  RH WIND       PRES   REMARKS
DODGE CITY     MOSUNNY   82  66  58 E8        30.25F
ELKHART          N/A     81  65  58 E13         N/A
GARDEN CITY    MOSUNNY   83  68  60 SE8G16    30.26F
GREAT BEND     MOSUNNY   81  66  61 S5        30.22F
LIBERAL        CLOUDY    79  68  69 SE7       30.26F
$$

KSZ066>073-081>083-090>101-302000-
SOUTHEAST KANSAS

CITY           SKY/WX    TMP DP  RH WIND       PRES   REMARKS
CHANUTE        CLOUDY    85  59  41 CALM      30.21F
COFFEYVILLE    CLOUDY    78  68  71 N8        30.20S
HUTCHINSON     SUNNY     83  68  60 SE8       30.22F
MEDICINE LODGE   N/A     78  69  73 SE5       30.21F
NEWTON         PTSUNNY   73  66  78 NE6       30.25F
PARSONS        LGT RAIN  76  73  91 NW8       30.21F
WICHITA INTL   PTSUNNY   79  69  71 N7        30.21F
WICHITA JABRA  PTSUNNY   76  70  82 MISG      30.22F
WINFIELD       CLOUDY    76  72  87 SE7       30.21F
$$

KSZ007>012-019>026-033>040-048>060-102>105-302000-
NORTHEAST KANSAS

CITY           SKY/WX    TMP DP  RH WIND       PRES   REMARKS
CONCORDIA      MOSUNNY   84  64  50 SE7       30.21F
EMPORIA        CLOUDY    74  67  78 S3        30.23F
LAWRENCE       PTSUNNY   85  62  46 S6        30.21F
MANHATTAN      SUNNY     85  63  47 VRB5      30.20F
OLATHE IND     CLOUDY    83  57  41 S5        30.22F
OLATHE EXE     CLOUDY    81  56  42 S6        30.21F
SALINA         MOSUNNY   84  69  60 SE6       30.21F
TOPEKA BILLARD MOSUNNY   84  61  45 S7        30.21F
TOPEKA FORBES  MOSUNNY   84  61  45 SW5       30.22F
$$


USA.gov is the U.S. government's official web portal to all federal, state and local government web resources and services.